owner,sensor,date,latitude,longitude,air_temperature,qcFlag 
COMPS,ioos:station:USF.COMPS:SHP:1,2010-10-01T00:00:00Z,30.0600,-84.2910,25.7,1111122 
COMPS,ioos:station:USF.COMPS:SHP:1,2010-10-01T00:06:00Z,30.0600,-84.2910,25.62,1111122 
COMPS,ioos:station:USF.COMPS:SHP:1,2010-10-01T00:12:00Z,30.0600,-84.2910,25.3,1111122 
COMPS,ioos:station:USF.COMPS:SHP:1,2010-10-01T00:18:00Z,30.0600,-84.2910,25.2,1111122 
COMPS,ioos:station:USF.COMPS:SHP:1,2010-10-01T00:24:00Z,30.0600,-84.2910,25.11,1111122 
COMPS,ioos:station:USF.COMPS:SHP:1,2010-10-01T00:30:00Z,30.0600,-84.2910,25.07,1111122 
COMPS,ioos:station:USF.COMPS:SHP:1,2010-10-01T00:36:00Z,30.0600,-84.2910,24.97,1111122 
COMPS,ioos:station:USF.COMPS:SHP:1,2010-10-01T00:42:00Z,30.0600,-84.2910,25.0,1111122 
COMPS,ioos:station:USF.COMPS:SHP:1,2010-10-01T00:48:00Z,30.0600,-84.2910,24.9,1111122 
COMPS,ioos:station:USF.COMPS:SHP:1,2010-10-01T00:54:00Z,30.0600,-84.2910,24.91,1111122 
COMPS,ioos:station:USF.COMPS:SHP:1,2010-10-01T01:00:00Z,30.0600,-84.2910,24.9,1111122 
COMPS,ioos:station:USF.COMPS:SHP:1,2010-10-01T01:06:00Z,30.0600,-84.2910,24.6,1111122 
COMPS,ioos:station:USF.COMPS:SHP:1,2010-10-01T01:12:00Z,30.0600,-84.2910,24.55,1111122 
COMPS,ioos:station:USF.COMPS:SHP:1,2010-10-01T01:18:00Z,30.0600,-84.2910,24.46,1111122 
COMPS,ioos:station:USF.COMPS:SHP:1,2010-10-01T01:24:00Z,30.0600,-84.2910,24.38,1111122 
COMPS,ioos:station:USF.COMPS:SHP:1,2010-10-01T01:30:00Z,30.0600,-84.2910,24.31,1111122 
COMPS,ioos:station:USF.COMPS:SHP:1,2010-10-01T01:36:00Z,30.0600,-84.2910,24.18,1111122 
COMPS,ioos:station:USF.COMPS:SHP:1,2010-10-01T01:42:00Z,30.0600,-84.2910,24.21,1111122 
COMPS,ioos:station:USF.COMPS:SHP:1,2010-10-01T01:48:00Z,30.0600,-84.2910,24.11,1111122 
COMPS,ioos:station:USF.COMPS:SHP:1,2010-10-01T01:54:00Z,30.0600,-84.2910,24.03,1111122 
COMPS,ioos:station:USF.COMPS:SHP:1,2010-10-01T02:00:00Z,30.0600,-84.2910,24.0,1111122 
COMPS,ioos:station:USF.COMPS:SHP:1,2010-10-01T02:06:00Z,30.0600,-84.2910,24.08,1111122 
COMPS,ioos:station:USF.COMPS:SHP:1,2010-10-01T02:12:00Z,30.0600,-84.2910,24.1,1111122 
COMPS,ioos:station:USF.COMPS:SHP:1,2010-10-01T02:18:00Z,30.0600,-84.2910,23.85,1111122 
COMPS,ioos:station:USF.COMPS:SHP:1,2010-10-01T02:24:00Z,30.0600,-84.2910,23.76,1111122 
COMPS,ioos:station:USF.COMPS:SHP:1,2010-10-01T02:30:00Z,30.0600,-84.2910,23.66,1111122 
COMPS,ioos:station:USF.COMPS:SHP:1,2010-10-01T02:36:00Z,30.0600,-84.2910,23.71,1111122 
COMPS,ioos:station:USF.COMPS:SHP:1,2010-10-01T02:42:00Z,30.0600,-84.2910,23.53,1111122 
COMPS,ioos:station:USF.COMPS:SHP:1,2010-10-01T02:48:00Z,30.0600,-84.2910,23.52,1111122 
COMPS,ioos:station:USF.COMPS:SHP:1,2010-10-01T02:54:00Z,30.0600,-84.2910,23.51,1111122 
COMPS,ioos:station:USF.COMPS:SHP:1,2010-10-01T03:00:00Z,30.0600,-84.2910,23.5,1111122 
COMPS,ioos:station:USF.COMPS:SHP:1,2010-10-01T03:06:00Z,30.0600,-84.2910,23.41,1111122 
COMPS,ioos:station:USF.COMPS:SHP:1,2010-10-01T03:12:00Z,30.0600,-84.2910,23.27,1111122 
COMPS,ioos:station:USF.COMPS:SHP:1,2010-10-01T03:18:00Z,30.0600,-84.2910,23.22,1111122 
COMPS,ioos:station:USF.COMPS:SHP:1,2010-10-01T03:24:00Z,30.0600,-84.2910,23.11,1111122 
COMPS,ioos:station:USF.COMPS:SHP:1,2010-10-01T03:30:00Z,30.0600,-84.2910,22.84,1111122 
COMPS,ioos:station:USF.COMPS:SHP:1,2010-10-01T03:36:00Z,30.0600,-84.2910,22.72,1111122 
COMPS,ioos:station:USF.COMPS:SHP:1,2010-10-01T03:42:00Z,30.0600,-84.2910,22.72,1111122 
COMPS,ioos:station:USF.COMPS:SHP:1,2010-10-01T03:48:00Z,30.0600,-84.2910,22.68,1111122 
COMPS,ioos:station:USF.COMPS:SHP:1,2010-10-01T03:54:00Z,30.0600,-84.2910,22.76,1111122 
COMPS,ioos:station:USF.COMPS:SHP:1,2010-10-01T04:00:00Z,30.0600,-84.2910,22.8,1111122 
COMPS,ioos:station:USF.COMPS:SHP:1,2010-10-01T04:06:00Z,30.0600,-84.2910,22.55,1111122 
COMPS,ioos:station:USF.COMPS:SHP:1,2010-10-01T04:12:00Z,30.0600,-84.2910,22.48,1111122 
COMPS,ioos:station:USF.COMPS:SHP:1,2010-10-01T04:18:00Z,30.0600,-84.2910,22.32,1111122 
COMPS,ioos:station:USF.COMPS:SHP:1,2010-10-01T04:24:00Z,30.0600,-84.2910,22.02,1111122 
COMPS,ioos:station:USF.COMPS:SHP:1,2010-10-01T04:30:00Z,30.0600,-84.2910,21.91,1111122 
COMPS,ioos:station:USF.COMPS:SHP:1,2010-10-01T04:36:00Z,30.0600,-84.2910,21.85,1111122 
COMPS,ioos:station:USF.COMPS:SHP:1,2010-10-01T04:42:00Z,30.0600,-84.2910,21.88,1111122 
COMPS,ioos:station:USF.COMPS:SHP:1,2010-10-01T04:48:00Z,30.0600,-84.2910,21.65,1111122 
COMPS,ioos:station:USF.COMPS:SHP:1,2010-10-01T04:54:00Z,30.0600,-84.2910,21.65,1111122 
COMPS,ioos:station:USF.COMPS:SHP:1,2010-10-01T05:00:00Z,30.0600,-84.2910,21.7,1111122 
COMPS,ioos:station:USF.COMPS:SHP:1,2010-10-01T05:06:00Z,30.0600,-84.2910,21.88,1111122 
COMPS,ioos:station:USF.COMPS:SHP:1,2010-10-01T05:12:00Z,30.0600,-84.2910,21.79,1111122 
COMPS,ioos:station:USF.COMPS:SHP:1,2010-10-01T05:18:00Z,30.0600,-84.2910,21.67,1111122 
COMPS,ioos:station:USF.COMPS:SHP:1,2010-10-01T05:24:00Z,30.0600,-84.2910,21.58,1111122 
COMPS,ioos:station:USF.COMPS:SHP:1,2010-10-01T05:30:00Z,30.0600,-84.2910,21.65,1111122 
COMPS,ioos:station:USF.COMPS:SHP:1,2010-10-01T05:36:00Z,30.0600,-84.2910,21.53,1111122 
COMPS,ioos:station:USF.COMPS:SHP:1,2010-10-01T05:42:00Z,30.0600,-84.2910,21.49,1111122 
COMPS,ioos:station:USF.COMPS:SHP:1,2010-10-01T05:48:00Z,30.0600,-84.2910,21.34,1111122 
COMPS,ioos:station:USF.COMPS:SHP:1,2010-10-01T05:54:00Z,30.0600,-84.2910,21.26,1111122 
COMPS,ioos:station:USF.COMPS:SHP:1,2010-10-01T06:00:00Z,30.0600,-84.2910,21.3,1111122 
COMPS,ioos:station:USF.COMPS:SHP:1,2010-10-01T06:06:00Z,30.0600,-84.2910,21.0,1111122 
COMPS,ioos:station:USF.COMPS:SHP:1,2010-10-01T06:12:00Z,30.0600,-84.2910,20.96,1111122 
COMPS,ioos:station:USF.COMPS:SHP:1,2010-10-01T06:18:00Z,30.0600,-84.2910,20.92,1111122 
COMPS,ioos:station:USF.COMPS:SHP:1,2010-10-01T06:24:00Z,30.0600,-84.2910,20.89,1111122 
COMPS,ioos:station:USF.COMPS:SHP:1,2010-10-01T06:30:00Z,30.0600,-84.2910,20.78,1111122 
COMPS,ioos:station:USF.COMPS:SHP:1,2010-10-01T06:36:00Z,30.0600,-84.2910,20.69,1111122 
COMPS,ioos:station:USF.COMPS:SHP:1,2010-10-01T06:42:00Z,30.0600,-84.2910,20.78,1111122 
COMPS,ioos:station:USF.COMPS:SHP:1,2010-10-01T06:48:00Z,30.0600,-84.2910,20.7,1111122 
COMPS,ioos:station:USF.COMPS:SHP:1,2010-10-01T06:54:00Z,30.0600,-84.2910,20.57,1111122 
COMPS,ioos:station:USF.COMPS:SHP:1,2010-10-01T07:00:00Z,30.0600,-84.2910,20.6,1111122 
COMPS,ioos:station:USF.COMPS:SHP:1,2010-10-01T07:06:00Z,30.0600,-84.2910,20.47,1111122 
COMPS,ioos:station:USF.COMPS:SHP:1,2010-10-01T07:12:00Z,30.0600,-84.2910,20.45,1111122 
COMPS,ioos:station:USF.COMPS:SHP:1,2010-10-01T07:18:00Z,30.0600,-84.2910,20.29,1111122 
COMPS,ioos:station:USF.COMPS:SHP:1,2010-10-01T07:24:00Z,30.0600,-84.2910,20.17,1111122 
COMPS,ioos:station:USF.COMPS:SHP:1,2010-10-01T07:30:00Z,30.0600,-84.2910,20.08,1111122 
COMPS,ioos:station:USF.COMPS:SHP:1,2010-10-01T07:36:00Z,30.0600,-84.2910,20.15,1111122 
COMPS,ioos:station:USF.COMPS:SHP:1,2010-10-01T07:42:00Z,30.0600,-84.2910,20.04,1111122 
COMPS,ioos:station:USF.COMPS:SHP:1,2010-10-01T07:48:00Z,30.0600,-84.2910,19.9,1111122 
COMPS,ioos:station:USF.COMPS:SHP:1,2010-10-01T07:54:00Z,30.0600,-84.2910,19.76,1111122 
COMPS,ioos:station:USF.COMPS:SHP:1,2010-10-01T08:00:00Z,30.0600,-84.2910,19.8,1111122 
COMPS,ioos:station:USF.COMPS:SHP:1,2010-10-01T08:06:00Z,30.0600,-84.2910,19.64,1111122 
COMPS,ioos:station:USF.COMPS:SHP:1,2010-10-01T08:12:00Z,30.0600,-84.2910,19.75,1111122 
COMPS,ioos:station:USF.COMPS:SHP:1,2010-10-01T08:18:00Z,30.0600,-84.2910,19.86,1111122 
COMPS,ioos:station:USF.COMPS:SHP:1,2010-10-01T08:24:00Z,30.0600,-84.2910,20.14,1111122 
COMPS,ioos:station:USF.COMPS:SHP:1,2010-10-01T08:30:00Z,30.0600,-84.2910,20.06,1111122 
COMPS,ioos:station:USF.COMPS:SHP:1,2010-10-01T08:36:00Z,30.0600,-84.2910,19.94,1111122 
COMPS,ioos:station:USF.COMPS:SHP:1,2010-10-01T08:42:00Z,30.0600,-84.2910,19.84,1111122 
COMPS,ioos:station:USF.COMPS:SHP:1,2010-10-01T08:48:00Z,30.0600,-84.2910,19.78,1111122 
COMPS,ioos:station:USF.COMPS:SHP:1,2010-10-01T08:54:00Z,30.0600,-84.2910,19.62,1111122 
COMPS,ioos:station:USF.COMPS:SHP:1,2010-10-01T09:00:00Z,30.0600,-84.2910,19.6,1111122 
COMPS,ioos:station:USF.COMPS:SHP:1,2010-10-01T09:06:00Z,30.0600,-84.2910,19.41,1111122 
COMPS,ioos:station:USF.COMPS:SHP:1,2010-10-01T09:12:00Z,30.0600,-84.2910,19.3,1111122 
COMPS,ioos:station:USF.COMPS:SHP:1,2010-10-01T09:18:00Z,30.0600,-84.2910,19.26,1111122 
COMPS,ioos:station:USF.COMPS:SHP:1,2010-10-01T09:24:00Z,30.0600,-84.2910,19.05,1111122 
COMPS,ioos:station:USF.COMPS:SHP:1,2010-10-01T09:30:00Z,30.0600,-84.2910,18.92,1111122 
COMPS,ioos:station:USF.COMPS:SHP:1,2010-10-01T09:36:00Z,30.0600,-84.2910,18.87,1111122 
COMPS,ioos:station:USF.COMPS:SHP:1,2010-10-01T09:42:00Z,30.0600,-84.2910,18.91,1111122 
COMPS,ioos:station:USF.COMPS:SHP:1,2010-10-01T09:48:00Z,30.0600,-84.2910,18.77,1111122 
COMPS,ioos:station:USF.COMPS:SHP:1,2010-10-01T09:54:00Z,30.0600,-84.2910,18.68,1111122 
COMPS,ioos:station:USF.COMPS:SHP:1,2010-10-01T10:00:00Z,30.0600,-84.2910,18.7,1111122 
COMPS,ioos:station:USF.COMPS:SHP:1,2010-10-01T10:06:00Z,30.0600,-84.2910,18.72,1111122 
COMPS,ioos:station:USF.COMPS:SHP:1,2010-10-01T10:12:00Z,30.0600,-84.2910,18.57,1111122 
COMPS,ioos:station:USF.COMPS:SHP:1,2010-10-01T10:18:00Z,30.0600,-84.2910,18.43,1111122 
COMPS,ioos:station:USF.COMPS:SHP:1,2010-10-01T10:24:00Z,30.0600,-84.2910,18.34,1111122 
COMPS,ioos:station:USF.COMPS:SHP:1,2010-10-01T10:30:00Z,30.0600,-84.2910,18.42,1111122 
COMPS,ioos:station:USF.COMPS:SHP:1,2010-10-01T10:36:00Z,30.0600,-84.2910,18.21,1111122 
COMPS,ioos:station:USF.COMPS:SHP:1,2010-10-01T10:42:00Z,30.0600,-84.2910,18.11,1111122 
COMPS,ioos:station:USF.COMPS:SHP:1,2010-10-01T10:48:00Z,30.0600,-84.2910,17.96,1111122 
COMPS,ioos:station:USF.COMPS:SHP:1,2010-10-01T10:54:00Z,30.0600,-84.2910,18.0,1111122 
COMPS,ioos:station:USF.COMPS:SHP:1,2010-10-01T11:00:00Z,30.0600,-84.2910,18.0,1111122 
COMPS,ioos:station:USF.COMPS:SHP:1,2010-10-01T11:06:00Z,30.0600,-84.2910,17.6,1111122 
COMPS,ioos:station:USF.COMPS:SHP:1,2010-10-01T11:12:00Z,30.0600,-84.2910,17.52,1111122 
COMPS,ioos:station:USF.COMPS:SHP:1,2010-10-01T11:18:00Z,30.0600,-84.2910,17.58,1111122 
COMPS,ioos:station:USF.COMPS:SHP:1,2010-10-01T11:24:00Z,30.0600,-84.2910,17.42,1111122 
COMPS,ioos:station:USF.COMPS:SHP:1,2010-10-01T11:30:00Z,30.0600,-84.2910,17.36,1111122 
COMPS,ioos:station:USF.COMPS:SHP:1,2010-10-01T11:36:00Z,30.0600,-84.2910,17.35,1111122 
COMPS,ioos:station:USF.COMPS:SHP:1,2010-10-01T11:42:00Z,30.0600,-84.2910,17.45,1111122 
COMPS,ioos:station:USF.COMPS:SHP:1,2010-10-01T11:48:00Z,30.0600,-84.2910,17.44,1111122 
COMPS,ioos:station:USF.COMPS:SHP:1,2010-10-01T11:54:00Z,30.0600,-84.2910,17.4,1111122 
COMPS,ioos:station:USF.COMPS:SHP:1,2010-10-01T12:00:00Z,30.0600,-84.2910,17.4,1111122 
COMPS,ioos:station:USF.COMPS:SHP:1,2010-10-01T12:06:00Z,30.0600,-84.2910,17.54,1111122 
COMPS,ioos:station:USF.COMPS:SHP:1,2010-10-01T12:12:00Z,30.0600,-84.2910,17.63,1111122 
COMPS,ioos:station:USF.COMPS:SHP:1,2010-10-01T12:18:00Z,30.0600,-84.2910,17.71,1111122 
COMPS,ioos:station:USF.COMPS:SHP:1,2010-10-01T12:24:00Z,30.0600,-84.2910,17.78,1111122 
COMPS,ioos:station:USF.COMPS:SHP:1,2010-10-01T12:30:00Z,30.0600,-84.2910,17.99,1111122 
COMPS,ioos:station:USF.COMPS:SHP:1,2010-10-01T12:36:00Z,30.0600,-84.2910,18.28,1111122 
COMPS,ioos:station:USF.COMPS:SHP:1,2010-10-01T12:42:00Z,30.0600,-84.2910,18.47,1111122 
COMPS,ioos:station:USF.COMPS:SHP:1,2010-10-01T12:48:00Z,30.0600,-84.2910,18.64,1111122 
COMPS,ioos:station:USF.COMPS:SHP:1,2010-10-01T12:54:00Z,30.0600,-84.2910,18.87,1111122 
COMPS,ioos:station:USF.COMPS:SHP:1,2010-10-01T13:00:00Z,30.0600,-84.2910,18.9,1111122 
COMPS,ioos:station:USF.COMPS:SHP:1,2010-10-01T13:06:00Z,30.0600,-84.2910,19.27,1111122 
COMPS,ioos:station:USF.COMPS:SHP:1,2010-10-01T13:12:00Z,30.0600,-84.2910,19.51,1111122 
COMPS,ioos:station:USF.COMPS:SHP:1,2010-10-01T13:18:00Z,30.0600,-84.2910,19.73,1111122 
COMPS,ioos:station:USF.COMPS:SHP:1,2010-10-01T13:24:00Z,30.0600,-84.2910,20.05,1111122 
COMPS,ioos:station:USF.COMPS:SHP:1,2010-10-01T13:30:00Z,30.0600,-84.2910,20.13,1111122 
COMPS,ioos:station:USF.COMPS:SHP:1,2010-10-01T13:36:00Z,30.0600,-84.2910,20.33,1111122 
COMPS,ioos:station:USF.COMPS:SHP:1,2010-10-01T13:42:00Z,30.0600,-84.2910,20.58,1111122 
COMPS,ioos:station:USF.COMPS:SHP:1,2010-10-01T13:48:00Z,30.0600,-84.2910,20.88,1111122 
COMPS,ioos:station:USF.COMPS:SHP:1,2010-10-01T13:54:00Z,30.0600,-84.2910,21.04,1111122 
COMPS,ioos:station:USF.COMPS:SHP:1,2010-10-01T14:00:00Z,30.0600,-84.2910,21.0,1111122 
COMPS,ioos:station:USF.COMPS:SHP:1,2010-10-01T14:06:00Z,30.0600,-84.2910,21.39,1111122 
COMPS,ioos:station:USF.COMPS:SHP:1,2010-10-01T14:12:00Z,30.0600,-84.2910,21.6,1111122 
COMPS,ioos:station:USF.COMPS:SHP:1,2010-10-01T14:18:00Z,30.0600,-84.2910,21.72,1111122 
COMPS,ioos:station:USF.COMPS:SHP:1,2010-10-01T14:24:00Z,30.0600,-84.2910,21.84,1111122 
COMPS,ioos:station:USF.COMPS:SHP:1,2010-10-01T14:30:00Z,30.0600,-84.2910,22.07,1111122 
COMPS,ioos:station:USF.COMPS:SHP:1,2010-10-01T14:36:00Z,30.0600,-84.2910,22.24,1111122 
COMPS,ioos:station:USF.COMPS:SHP:1,2010-10-01T14:42:00Z,30.0600,-84.2910,22.46,1111122 
COMPS,ioos:station:USF.COMPS:SHP:1,2010-10-01T14:48:00Z,30.0600,-84.2910,22.55,1111122 
COMPS,ioos:station:USF.COMPS:SHP:1,2010-10-01T14:54:00Z,30.0600,-84.2910,22.64,1111122 
COMPS,ioos:station:USF.COMPS:SHP:1,2010-10-01T15:00:00Z,30.0600,-84.2910,22.6,1111122 
COMPS,ioos:station:USF.COMPS:SHP:1,2010-10-01T15:06:00Z,30.0600,-84.2910,23.07,1111122 
COMPS,ioos:station:USF.COMPS:SHP:1,2010-10-01T15:12:00Z,30.0600,-84.2910,23.29,1111122 
COMPS,ioos:station:USF.COMPS:SHP:1,2010-10-01T15:18:00Z,30.0600,-84.2910,23.39,1111122 
COMPS,ioos:station:USF.COMPS:SHP:1,2010-10-01T15:24:00Z,30.0600,-84.2910,23.56,1111122 
COMPS,ioos:station:USF.COMPS:SHP:1,2010-10-01T15:30:00Z,30.0600,-84.2910,23.76,1111122 
COMPS,ioos:station:USF.COMPS:SHP:1,2010-10-01T15:36:00Z,30.0600,-84.2910,23.82,1111122 
COMPS,ioos:station:USF.COMPS:SHP:1,2010-10-01T15:42:00Z,30.0600,-84.2910,23.95,1111122 
COMPS,ioos:station:USF.COMPS:SHP:1,2010-10-01T15:48:00Z,30.0600,-84.2910,24.12,1111122 
COMPS,ioos:station:USF.COMPS:SHP:1,2010-10-01T15:54:00Z,30.0600,-84.2910,24.59,1111122 
COMPS,ioos:station:USF.COMPS:SHP:1,2010-10-01T16:00:00Z,30.0600,-84.2910,24.6,1111122 
COMPS,ioos:station:USF.COMPS:SHP:1,2010-10-01T16:06:00Z,30.0600,-84.2910,25.12,1111122 
COMPS,ioos:station:USF.COMPS:SHP:1,2010-10-01T16:12:00Z,30.0600,-84.2910,24.81,1111122 
COMPS,ioos:station:USF.COMPS:SHP:1,2010-10-01T16:18:00Z,30.0600,-84.2910,25.11,1111122 
COMPS,ioos:station:USF.COMPS:SHP:1,2010-10-01T16:24:00Z,30.0600,-84.2910,25.53,1111122 
COMPS,ioos:station:USF.COMPS:SHP:1,2010-10-01T16:30:00Z,30.0600,-84.2910,25.4,1111122 
COMPS,ioos:station:USF.COMPS:SHP:1,2010-10-01T16:36:00Z,30.0600,-84.2910,25.19,1111122 
COMPS,ioos:station:USF.COMPS:SHP:1,2010-10-01T16:42:00Z,30.0600,-84.2910,25.17,1111122 
COMPS,ioos:station:USF.COMPS:SHP:1,2010-10-01T16:48:00Z,30.0600,-84.2910,25.58,1111122 
COMPS,ioos:station:USF.COMPS:SHP:1,2010-10-01T16:54:00Z,30.0600,-84.2910,25.22,1111122 
COMPS,ioos:station:USF.COMPS:SHP:1,2010-10-01T17:00:00Z,30.0600,-84.2910,25.2,1111122 
COMPS,ioos:station:USF.COMPS:SHP:1,2010-10-01T17:06:00Z,30.0600,-84.2910,25.38,1111122 
COMPS,ioos:station:USF.COMPS:SHP:1,2010-10-01T17:12:00Z,30.0600,-84.2910,25.94,1111122 
COMPS,ioos:station:USF.COMPS:SHP:1,2010-10-01T17:18:00Z,30.0600,-84.2910,25.88,1111122 
COMPS,ioos:station:USF.COMPS:SHP:1,2010-10-01T17:24:00Z,30.0600,-84.2910,26.37,1111122 
COMPS,ioos:station:USF.COMPS:SHP:1,2010-10-01T17:30:00Z,30.0600,-84.2910,26.05,1111122 
COMPS,ioos:station:USF.COMPS:SHP:1,2010-10-01T17:36:00Z,30.0600,-84.2910,26.22,1111122 
COMPS,ioos:station:USF.COMPS:SHP:1,2010-10-01T17:42:00Z,30.0600,-84.2910,26.32,1111122 
COMPS,ioos:station:USF.COMPS:SHP:1,2010-10-01T17:48:00Z,30.0600,-84.2910,26.55,1111122 
COMPS,ioos:station:USF.COMPS:SHP:1,2010-10-01T17:54:00Z,30.0600,-84.2910,26.58,1111122 
COMPS,ioos:station:USF.COMPS:SHP:1,2010-10-01T18:00:00Z,30.0600,-84.2910,26.6,1111122 
COMPS,ioos:station:USF.COMPS:SHP:1,2010-10-01T18:06:00Z,30.0600,-84.2910,26.69,1111122 
COMPS,ioos:station:USF.COMPS:SHP:1,2010-10-01T18:12:00Z,30.0600,-84.2910,26.78,1111122 
COMPS,ioos:station:USF.COMPS:SHP:1,2010-10-01T18:18:00Z,30.0600,-84.2910,27.04,1111122 
COMPS,ioos:station:USF.COMPS:SHP:1,2010-10-01T18:24:00Z,30.0600,-84.2910,26.86,1111122 
COMPS,ioos:station:USF.COMPS:SHP:1,2010-10-01T18:30:00Z,30.0600,-84.2910,27.46,1111122 
COMPS,ioos:station:USF.COMPS:SHP:1,2010-10-01T18:36:00Z,30.0600,-84.2910,27.27,1111122 
COMPS,ioos:station:USF.COMPS:SHP:1,2010-10-01T18:42:00Z,30.0600,-84.2910,26.72,1111122 
COMPS,ioos:station:USF.COMPS:SHP:1,2010-10-01T18:48:00Z,30.0600,-84.2910,26.93,1111122 
COMPS,ioos:station:USF.COMPS:SHP:1,2010-10-01T18:54:00Z,30.0600,-84.2910,27.04,1111122 
COMPS,ioos:station:USF.COMPS:SHP:1,2010-10-01T19:00:00Z,30.0600,-84.2910,27.0,1111122 
COMPS,ioos:station:USF.COMPS:SHP:1,2010-10-01T19:06:00Z,30.0600,-84.2910,26.99,1111122 
COMPS,ioos:station:USF.COMPS:SHP:1,2010-10-01T19:12:00Z,30.0600,-84.2910,27.34,1111122 
COMPS,ioos:station:USF.COMPS:SHP:1,2010-10-01T19:18:00Z,30.0600,-84.2910,27.43,1111122 
COMPS,ioos:station:USF.COMPS:SHP:1,2010-10-01T19:24:00Z,30.0600,-84.2910,27.97,1111122 
COMPS,ioos:station:USF.COMPS:SHP:1,2010-10-01T19:30:00Z,30.0600,-84.2910,27.49,1111122 
COMPS,ioos:station:USF.COMPS:SHP:1,2010-10-01T19:36:00Z,30.0600,-84.2910,27.9,1111122 
COMPS,ioos:station:USF.COMPS:SHP:1,2010-10-01T19:42:00Z,30.0600,-84.2910,27.94,1111122 
COMPS,ioos:station:USF.COMPS:SHP:1,2010-10-01T19:48:00Z,30.0600,-84.2910,27.61,1111122 
COMPS,ioos:station:USF.COMPS:SHP:1,2010-10-01T19:54:00Z,30.0600,-84.2910,27.88,1111122 
COMPS,ioos:station:USF.COMPS:SHP:1,2010-10-01T20:00:00Z,30.0600,-84.2910,27.9,1111122 
COMPS,ioos:station:USF.COMPS:SHP:1,2010-10-01T20:06:00Z,30.0600,-84.2910,28.16,1111122 
COMPS,ioos:station:USF.COMPS:SHP:1,2010-10-01T20:12:00Z,30.0600,-84.2910,28.26,1111122 
COMPS,ioos:station:USF.COMPS:SHP:1,2010-10-01T20:18:00Z,30.0600,-84.2910,28.22,1111122 
COMPS,ioos:station:USF.COMPS:SHP:1,2010-10-01T20:24:00Z,30.0600,-84.2910,28.05,1111122 
COMPS,ioos:station:USF.COMPS:SHP:1,2010-10-01T20:30:00Z,30.0600,-84.2910,28.11,1111122 
COMPS,ioos:station:USF.COMPS:SHP:1,2010-10-01T20:36:00Z,30.0600,-84.2910,28.08,1111122 
COMPS,ioos:station:USF.COMPS:SHP:1,2010-10-01T20:42:00Z,30.0600,-84.2910,28.21,1111122 
COMPS,ioos:station:USF.COMPS:SHP:1,2010-10-01T20:48:00Z,30.0600,-84.2910,28.09,1111122 
COMPS,ioos:station:USF.COMPS:SHP:1,2010-10-01T20:54:00Z,30.0600,-84.2910,28.3,1111122 
COMPS,ioos:station:USF.COMPS:SHP:1,2010-10-01T21:00:00Z,30.0600,-84.2910,28.3,1111122 
COMPS,ioos:station:USF.COMPS:SHP:1,2010-10-01T21:06:00Z,30.0600,-84.2910,28.28,1111122 
COMPS,ioos:station:USF.COMPS:SHP:1,2010-10-01T21:12:00Z,30.0600,-84.2910,28.3,1111122 
COMPS,ioos:station:USF.COMPS:SHP:1,2010-10-01T21:18:00Z,30.0600,-84.2910,28.34,1111122 
COMPS,ioos:station:USF.COMPS:SHP:1,2010-10-01T21:24:00Z,30.0600,-84.2910,28.16,1111122 
COMPS,ioos:station:USF.COMPS:SHP:1,2010-10-01T21:30:00Z,30.0600,-84.2910,28.22,1111122 
COMPS,ioos:station:USF.COMPS:SHP:1,2010-10-01T21:36:00Z,30.0600,-84.2910,28.24,1111122 
COMPS,ioos:station:USF.COMPS:SHP:1,2010-10-01T21:42:00Z,30.0600,-84.2910,28.33,1111122 
COMPS,ioos:station:USF.COMPS:SHP:1,2010-10-01T21:48:00Z,30.0600,-84.2910,28.22,1111122 
COMPS,ioos:station:USF.COMPS:SHP:1,2010-10-01T21:54:00Z,30.0600,-84.2910,28.21,1111122 
COMPS,ioos:station:USF.COMPS:SHP:1,2010-10-01T22:00:00Z,30.0600,-84.2910,28.2,1111122 
COMPS,ioos:station:USF.COMPS:SHP:1,2010-10-01T22:06:00Z,30.0600,-84.2910,28.13,1111122 
COMPS,ioos:station:USF.COMPS:SHP:1,2010-10-01T22:12:00Z,30.0600,-84.2910,28.08,1111122 
COMPS,ioos:station:USF.COMPS:SHP:1,2010-10-01T22:18:00Z,30.0600,-84.2910,27.92,1111122 
COMPS,ioos:station:USF.COMPS:SHP:1,2010-10-01T22:24:00Z,30.0600,-84.2910,27.84,1111122 
COMPS,ioos:station:USF.COMPS:SHP:1,2010-10-01T22:30:00Z,30.0600,-84.2910,27.83,1111122 
COMPS,ioos:station:USF.COMPS:SHP:1,2010-10-01T22:36:00Z,30.0600,-84.2910,27.78,1111122 
COMPS,ioos:station:USF.COMPS:SHP:1,2010-10-01T22:42:00Z,30.0600,-84.2910,27.56,1111122 
COMPS,ioos:station:USF.COMPS:SHP:1,2010-10-01T22:48:00Z,30.0600,-84.2910,27.41,1111122 
COMPS,ioos:station:USF.COMPS:SHP:1,2010-10-01T22:54:00Z,30.0600,-84.2910,27.32,1111122 
COMPS,ioos:station:USF.COMPS:SHP:1,2010-10-01T23:00:00Z,30.0600,-84.2910,27.3,1111122 
COMPS,ioos:station:USF.COMPS:SHP:1,2010-10-01T23:06:00Z,30.0600,-84.2910,26.95,1111122 
COMPS,ioos:station:USF.COMPS:SHP:1,2010-10-01T23:12:00Z,30.0600,-84.2910,26.76,1111122 
COMPS,ioos:station:USF.COMPS:SHP:1,2010-10-01T23:18:00Z,30.0600,-84.2910,26.48,1111122 
COMPS,ioos:station:USF.COMPS:SHP:1,2010-10-01T23:24:00Z,30.0600,-84.2910,26.35,1111122 
COMPS,ioos:station:USF.COMPS:SHP:1,2010-10-01T23:30:00Z,30.0600,-84.2910,25.92,1111122 
COMPS,ioos:station:USF.COMPS:SHP:1,2010-10-01T23:36:00Z,30.0600,-84.2910,25.75,1111122 
COMPS,ioos:station:USF.COMPS:SHP:1,2010-10-01T23:42:00Z,30.0600,-84.2910,25.54,1111122 
COMPS,ioos:station:USF.COMPS:SHP:1,2010-10-01T23:48:00Z,30.0600,-84.2910,25.45,1111122 
COMPS,ioos:station:USF.COMPS:SHP:1,2010-10-01T23:54:00Z,30.0600,-84.2910,25.15,1111122 
COMPS,ioos:station:USF.COMPS:SHP:1,2010-10-02T00:00:00Z,30.0600,-84.2910,25.2,1111122 
COMPS,ioos:station:USF.COMPS:SHP:1,2010-10-02T00:06:00Z,30.0600,-84.2910,24.79,1111122 
COMPS,ioos:station:USF.COMPS:SHP:1,2010-10-02T00:12:00Z,30.0600,-84.2910,24.73,1111122 
COMPS,ioos:station:USF.COMPS:SHP:1,2010-10-02T00:18:00Z,30.0600,-84.2910,24.48,1111122 
COMPS,ioos:station:USF.COMPS:SHP:1,2010-10-02T00:24:00Z,30.0600,-84.2910,24.31,1111122 
COMPS,ioos:station:USF.COMPS:SHP:1,2010-10-02T00:30:00Z,30.0600,-84.2910,24.27,1111122 
COMPS,ioos:station:USF.COMPS:SHP:1,2010-10-02T00:36:00Z,30.0600,-84.2910,24.26,1111122 
COMPS,ioos:station:USF.COMPS:SHP:1,2010-10-02T00:42:00Z,30.0600,-84.2910,24.27,1111122 
COMPS,ioos:station:USF.COMPS:SHP:1,2010-10-02T00:48:00Z,30.0600,-84.2910,24.14,1111122 
COMPS,ioos:station:USF.COMPS:SHP:1,2010-10-02T00:54:00Z,30.0600,-84.2910,23.88,1111122 
COMPS,ioos:station:USF.COMPS:SHP:1,2010-10-02T01:00:00Z,30.0600,-84.2910,23.9,1111122 
COMPS,ioos:station:USF.COMPS:SHP:1,2010-10-02T01:06:00Z,30.0600,-84.2910,23.69,1111122 
COMPS,ioos:station:USF.COMPS:SHP:1,2010-10-02T01:12:00Z,30.0600,-84.2910,23.61,1111122 
COMPS,ioos:station:USF.COMPS:SHP:1,2010-10-02T01:18:00Z,30.0600,-84.2910,23.5,1111122 
COMPS,ioos:station:USF.COMPS:SHP:1,2010-10-02T01:24:00Z,30.0600,-84.2910,23.54,1111122 
COMPS,ioos:station:USF.COMPS:SHP:1,2010-10-02T01:30:00Z,30.0600,-84.2910,23.54,1111122 
COMPS,ioos:station:USF.COMPS:SHP:1,2010-10-02T01:36:00Z,30.0600,-84.2910,23.35,1111122 
COMPS,ioos:station:USF.COMPS:SHP:1,2010-10-02T01:42:00Z,30.0600,-84.2910,23.25,1111122 
COMPS,ioos:station:USF.COMPS:SHP:1,2010-10-02T01:48:00Z,30.0600,-84.2910,23.25,1111122 
COMPS,ioos:station:USF.COMPS:SHP:1,2010-10-02T01:54:00Z,30.0600,-84.2910,23.41,1111122 
COMPS,ioos:station:USF.COMPS:SHP:1,2010-10-02T02:00:00Z,30.0600,-84.2910,23.4,1111122 
COMPS,ioos:station:USF.COMPS:SHP:1,2010-10-02T02:06:00Z,30.0600,-84.2910,23.19,1111122 
COMPS,ioos:station:USF.COMPS:SHP:1,2010-10-02T02:12:00Z,30.0600,-84.2910,23.11,1111122 
COMPS,ioos:station:USF.COMPS:SHP:1,2010-10-02T02:18:00Z,30.0600,-84.2910,23.22,1111122 
COMPS,ioos:station:USF.COMPS:SHP:1,2010-10-02T02:24:00Z,30.0600,-84.2910,22.99,1111122 
COMPS,ioos:station:USF.COMPS:SHP:1,2010-10-02T02:30:00Z,30.0600,-84.2910,22.98,1111122 
COMPS,ioos:station:USF.COMPS:SHP:1,2010-10-02T02:36:00Z,30.0600,-84.2910,22.88,1111122 
COMPS,ioos:station:USF.COMPS:SHP:1,2010-10-02T02:42:00Z,30.0600,-84.2910,22.98,1111122 
COMPS,ioos:station:USF.COMPS:SHP:1,2010-10-02T02:48:00Z,30.0600,-84.2910,22.77,1111122 
COMPS,ioos:station:USF.COMPS:SHP:1,2010-10-02T02:54:00Z,30.0600,-84.2910,22.61,1111122 
COMPS,ioos:station:USF.COMPS:SHP:1,2010-10-02T03:00:00Z,30.0600,-84.2910,22.6,1111122 
COMPS,ioos:station:USF.COMPS:SHP:1,2010-10-02T03:06:00Z,30.0600,-84.2910,22.44,1111122 